User: anonymous
Location: Oshawa
(43.9000°N, 78.8670°W)
Time: 11:57:09
(UTC-04:00)
Language:

Cosmos 1805 Rocket - Orbit

View from above orbital plane
View from above orbital plane
View from above satellite
View from above satellite

Ground track
Ground track

The orbit data is extracted from the following two-line orbital elements,

1 17192U 86097B   14205.44756503  .00000138  00000-0  14053-4 0  4990
2 17192 082.5080 169.9134 0016503 355.8060 138.5394 14.82962728491736
Epoch (UTC): 24 July 2014 10:44:29
Eccentricity: 0.0016503
inclination: 82.5080°
perigee height: 608 km
apogee height: 631 km
right ascension of ascending node: 169.9134°
argument of perigee: 355.8060°
revolutions per day: 14.82962728
mean anomaly at epoch: 138.5394°
orbit number at epoch: 49173

The dashed part of the orbit path shows where the satellite is in the earth's shadow,  

DLR